Volver al catálogo

STARLINK-35073

ActivoComunicacionesSSO
NORAD 65385·PAYLOAD·🇺🇸 United States

Lanzado Aug 30, 2025 desde Vandenberg Space Force Base

Loading…

Próximos Pases (próximas 24 horas)

TLE

ActualizadoSource: CelesTrak SupGP

Época: Sep 15, 2026, 03:47 UTC

1 65385C 25191G   26258.15812500 -.00000089  00000+0 -27471-5 0  2582
2 65385  97.2844 124.2644 0001748  94.5035 145.1552 15.33443548    16

Sigue STARLINK-35073 en tiempo real con AllMySat

Download on the App Store